Location: Dallas
(32.7833°N, 96.8000°W)
Time: 22:32:45
(UTC-06:00)

Envisat - Pass Details

Date: 10 December 2021
Orbit: 764 x 766 km, 98.2° (Epoch: 23 January)

Event Time Altitude Azimuth Distance (km) Brightness Sun altitude
Rises 05:52:12 0° 3° (N) 3,235 6.1 -17.8°
Reaches altitude 10° 05:54:36 10° 357° (N) 2,305 5.3 -17.3°
Maximum altitude 05:59:23 43° 287° (WNW) 1,061 3.3 -16.3°
Drops below altitude 10° 06:04:09 10° 217° (SW) 2,292 5.3 -15.4°
Sets 06:06:32 0° 210° (SSW) 3,214 6.1 -14.9°
